When you browse on this site, cookies collect data to enhance your experience and personalize the content and advertising you see.
Visit our Privacy Policy to learn more. By continuing to use the site, you agree to this use of cookies and data.
  • In Schweiz
  • Länderverzeichnis
  • Für 7 Tage
  • Wassertemperatur
  • Satellitenkarten
  • Wetterkarte
  • Widgets
  • user-avatar
    Anmelden

    Stündliche Wetter Sulukta

    Heute, 27 Juni, Donnerstag

    Zeit Temperatur Niederschläge Wind Luftdruck Luftfeuchtigkeit
    00:00 +22°C° 0 mm 4 m/S 646 mmHg 34%
    01:00 +22°C° 0 mm 3 m/S 646 mmHg 34%
    02:00 +21°C° 0 mm 3 m/S 646 mmHg 34%
    03:00 +21°C° 0 mm 3 m/S 646 mmHg 34%
    04:00 +20°C° 0 mm 2 m/S 645 mmHg 35%
    05:00 +20°C° 0 mm 2 m/S 645 mmHg 35%
    06:00 +23°C° 0 mm 1 m/S 646 mmHg 31%
    07:00 +25°C° 0 mm 1 m/S 647 mmHg 27%
    08:00 +27°C° 0 mm 1 m/S 647 mmHg 23%
    09:00 +28°C° 0 mm 2 m/S 647 mmHg 21%
    10:00 +29°C° 0 mm 3 m/S 648 mmHg 20%
    11:00 +30°C° 0 mm 4 m/S 648 mmHg 18%
    12:00 +30°C° 0 mm 4 m/S 648 mmHg 17%
    13:00 +32°C° 0 mm 4 m/S 647 mmHg 17%
    14:00 +32°C° 0 mm 4 m/S 647 mmHg 17%
    15:00 +32°C° 0 mm 4 m/S 647 mmHg 17%
    16:00 +32°C° 0 mm 4 m/S 647 mmHg 17%
    17:00 +32°C° 0 mm 4 m/S 647 mmHg 17%
    18:00 +29°C° 0 mm 3 m/S 646 mmHg 22%
    19:00 +27°C° 0 mm 2 m/S 646 mmHg 26%
    20:00 +25°C° 0 mm 1 m/S 646 mmHg 31%
    21:00 +25°C° 0 mm 2 m/S 646 mmHg 32%
    22:00 +24°C° 0 mm 3 m/S 646 mmHg 33%
    23:00 +24°C° 0 mm 3 m/S 646 mmHg 34%

    Morgen, 28 Juni, Freitag

    Zeit Temperatur Niederschläge Wind Luftdruck Luftfeuchtigkeit
    00:00 +22°C° 0 mm 3 m/S 645 mmHg 36%
    01:00 +21°C° 0 mm 3 m/S 645 mmHg 38%
    02:00 +20°C° 0 mm 2 m/S 644 mmHg 40%
    03:00 +20°C° 0 mm 2 m/S 644 mmHg 39%
    04:00 +20°C° 0 mm 2 m/S 644 mmHg 39%
    05:00 +19°C° 0 mm 2 m/S 644 mmHg 38%
    06:00 +23°C° 0 mm 2 m/S 645 mmHg 34%
    07:00 +25°C° 0 mm 1 m/S 645 mmHg 29%
    08:00 +27°C° 0 mm 1 m/S 646 mmHg 25%
    09:00 +28°C° 0 mm 2 m/S 646 mmHg 23%
    10:00 +29°C° 0 mm 2 m/S 646 mmHg 22%
    11:00 +30°C° 0 mm 3 m/S 646 mmHg 20%
    12:00 +31°C° 0 mm 3 m/S 646 mmHg 20%
    13:00 +31°C° 0 mm 3 m/S 646 mmHg 19%
    14:00 +33°C° 0 mm 3 m/S 646 mmHg 19%
    15:00 +29°C° 0.8 mm 5 m/S 645 mmHg 28%
    16:00 +26°C° 0.8 mm 7 m/S 644 mmHg 36%
    17:00 +23°C° 0.8 mm 9 m/S 644 mmHg 45%
    18:00 +23°C° 0.6 mm 7 m/S 644 mmHg 45%
    19:00 +22°C° 0.6 mm 5 m/S 644 mmHg 44%
    20:00 +22°C° 0.6 mm 4 m/S 644 mmHg 44%
    21:00 +22°C° 0 mm 3 m/S 644 mmHg 44%
    22:00 +23°C° 0 mm 2 m/S 645 mmHg 45%
    23:00 +23°C° 0 mm 1 m/S 645 mmHg 45%

    übermorgen, 29 Juni, Samstag

    Zeit Temperatur Niederschläge Wind Luftdruck Luftfeuchtigkeit
    00:00 +22°C° 0 mm 1 m/S 644 mmHg 45%
    01:00 +22°C° 0 mm 1 m/S 644 mmHg 45%
    02:00 +22°C° 0 mm 1 m/S 644 mmHg 46%
    03:00 +21°C° 0 mm 1 m/S 644 mmHg 45%
    04:00 +21°C° 0 mm 1 m/S 643 mmHg 44%
    05:00 +20°C° 0 mm 1 m/S 643 mmHg 44%
    06:00 +22°C° 0 mm 1 m/S 644 mmHg 39%
    07:00 +24°C° 0 mm 1 m/S 645 mmHg 34%
    08:00 +26°C° 0 mm 1 m/S 645 mmHg 30%
    09:00 +27°C° 0 mm 2 m/S 645 mmHg 28%
    10:00 +28°C° 0 mm 2 m/S 646 mmHg 27%
    11:00 +29°C° 0 mm 3 m/S 646 mmHg 26%
    12:00 +29°C° 0.2 mm 3 m/S 646 mmHg 27%
    13:00 +29°C° 0.2 mm 3 m/S 645 mmHg 29%
    14:00 +29°C° 0.2 mm 3 m/S 645 mmHg 30%
    15:00 +29°C° 0.3 mm 3 m/S 645 mmHg 30%
    16:00 +28°C° 0.3 mm 3 m/S 645 mmHg 30%
    17:00 +28°C° 0.3 mm 3 m/S 645 mmHg 31%
    18:00 +27°C° 0.1 mm 3 m/S 645 mmHg 34%
    19:00 +26°C° 0.1 mm 3 m/S 645 mmHg 37%
    20:00 +25°C° 0.1 mm 3 m/S 645 mmHg 40%
    21:00 +24°C° 0.1 mm 3 m/S 645 mmHg 40%
    22:00 +24°C° 0.1 mm 3 m/S 644 mmHg 39%
    23:00 +24°C° 0.1 mm 3 m/S 644 mmHg 39%

    30 Juni, Sonntag

    Zeit Temperatur Niederschläge Wind Luftdruck Luftfeuchtigkeit
    00:00 +24°C° 0 mm 2 m/S 644 mmHg 40%
    01:00 +23°C° 0 mm 2 m/S 644 mmHg 40%
    02:00 +23°C° 0 mm 1 m/S 643 mmHg 41%
    03:00 +22°C° 0 mm 1 m/S 643 mmHg 41%
    04:00 +22°C° 0 mm 1 m/S 643 mmHg 41%
    05:00 +21°C° 0 mm 1 m/S 643 mmHg 41%
    06:00 +23°C° 0 mm 1 m/S 644 mmHg 37%
    07:00 +25°C° 0 mm 1 m/S 644 mmHg 32%
    08:00 +27°C° 0 mm 1 m/S 645 mmHg 27%
    09:00 +29°C° 0 mm 2 m/S 645 mmHg 25%
    10:00 +30°C° 0 mm 2 m/S 646 mmHg 23%
    11:00 +31°C° 0 mm 3 m/S 646 mmHg 22%
    12:00 +33°C° 0 mm 3 m/S 646 mmHg 21%
    13:00 +33°C° 0 mm 3 m/S 646 mmHg 20%
    14:00 +34°C° 0 mm 3 m/S 646 mmHg 19%
    15:00 +34°C° 0.1 mm 3 m/S 646 mmHg 21%
    16:00 +32°C° 0.1 mm 2 m/S 646 mmHg 22%
    17:00 +32°C° 0.1 mm 2 m/S 645 mmHg 24%
    18:00 +30°C° 0 mm 2 m/S 645 mmHg 27%
    19:00 +29°C° 0 mm 2 m/S 645 mmHg 30%
    20:00 +27°C° 0 mm 2 m/S 645 mmHg 33%
    21:00 +27°C° 0 mm 2 m/S 645 mmHg 33%
    22:00 +26°C° 0 mm 2 m/S 645 mmHg 33%
    23:00 +25°C° 0 mm 2 m/S 645 mmHg 33%

    1 Juli, Montag

    Zeit Temperatur Niederschläge Wind Luftdruck Luftfeuchtigkeit
    00:00 +25°C° 0 mm 2 m/S 644 mmHg 32%
    01:00 +25°C° 0 mm 2 m/S 644 mmHg 32%
    02:00 +25°C° 0 mm 2 m/S 644 mmHg 32%
    03:00 +24°C° 0 mm 2 m/S 644 mmHg 33%
    04:00 +23°C° 0 mm 1 m/S 644 mmHg 34%
    05:00 +23°C° 0 mm 1 m/S 644 mmHg 36%
    06:00 +25°C° 0 mm 1 m/S 645 mmHg 32%
    07:00 +27°C° 0 mm 1 m/S 646 mmHg 28%
    08:00 +29°C° 0 mm 1 m/S 646 mmHg 25%
    09:00 +31°C° 0 mm 1 m/S 647 mmHg 23%
    10:00 +32°C° 0 mm 2 m/S 647 mmHg 22%
    11:00 +34°C° 0 mm 2 m/S 647 mmHg 20%
    12:00 +34°C° 0 mm 3 m/S 647 mmHg 19%
    13:00 +35°C° 0 mm 3 m/S 647 mmHg 19%
    14:00 +36°C° 0 mm 3 m/S 647 mmHg 18%
    15:00 +35°C° 0 mm 3 m/S 647 mmHg 18%
    16:00 +35°C° 0 mm 3 m/S 647 mmHg 18%
    17:00 +35°C° 0 mm 2 m/S 647 mmHg 18%
    18:00 +32°C° 0 mm 2 m/S 647 mmHg 22%
    19:00 +30°C° 0 mm 1 m/S 646 mmHg 26%
    20:00 +29°C° 0 mm 1 m/S 646 mmHg 30%
    21:00 +28°C° 0 mm 1 m/S 646 mmHg 30%
    22:00 +27°C° 0 mm 1 m/S 646 mmHg 30%
    23:00 +27°C° 0 mm 1 m/S 646 mmHg 30%

    2 Juli, Dienstag

    Zeit Temperatur Niederschläge Wind Luftdruck Luftfeuchtigkeit
    00:00 +26°C° 0 mm 1 m/S 646 mmHg 31%
    01:00 +26°C° 0 mm 1 m/S 645 mmHg 31%
    02:00 +25°C° 0 mm 2 m/S 645 mmHg 31%
    03:00 +25°C° 0 mm 2 m/S 645 mmHg 31%
    04:00 +25°C° 0 mm 2 m/S 645 mmHg 31%
    05:00 +24°C° 0 mm 2 m/S 645 mmHg 31%
    06:00 +27°C° 0 mm 2 m/S 646 mmHg 28%
    07:00 +29°C° 0 mm 1 m/S 647 mmHg 24%
    08:00 +31°C° 0 mm 1 m/S 647 mmHg 21%
    09:00 +32°C° 0 mm 2 m/S 647 mmHg 19%
    10:00 +34°C° 0 mm 2 m/S 648 mmHg 18%
    11:00 +36°C° 0 mm 3 m/S 648 mmHg 17%
    12:00 +36°C° 0 mm 3 m/S 648 mmHg 16%
    13:00 +37°C° 0 mm 4 m/S 648 mmHg 15%
    14:00 +38°C° 0 mm 4 m/S 648 mmHg 15%
    15:00 +38°C° 0 mm 4 m/S 648 mmHg 15%
    16:00 +38°C° 0 mm 3 m/S 648 mmHg 15%
    17:00 +38°C° 0 mm 3 m/S 647 mmHg 15%
    18:00 +35°C° 0 mm 2 m/S 647 mmHg 19%
    19:00 +32°C° 0 mm 1 m/S 646 mmHg 24%
    20:00 +27°C° 0 mm 0 m/S 646 mmHg 28%
    21:00 +29°C° 0 mm 1 m/S 646 mmHg 28%
    22:00 +28°C° 0 mm 1 m/S 646 mmHg 27%
    23:00 +28°C° 0 mm 1 m/S 646 mmHg 27%
    Mehr zeigen